owner,sensor,date,latitude,longitude,vertical_datum,sea_water_temperature,qcFlag 
SCCF RECON,ioos:station:SCCF:16:1,2010-04-06T17:00:00Z,26.4345,-81.9647,2.5,22.42,2 
SCCF RECON,ioos:station:SCCF:16:1,2010-04-06T18:00:00Z,26.4345,-81.9647,2.5,22.49,2 
SCCF RECON,ioos:station:SCCF:16:1,2010-04-06T19:00:00Z,26.4345,-81.9647,2.5,22.8,2 
SCCF RECON,ioos:station:SCCF:16:1,2010-04-06T20:00:00Z,26.4345,-81.9647,2.5,22.96,2 
SCCF RECON,ioos:station:SCCF:16:1,2010-04-06T21:00:00Z,26.4345,-81.9647,2.5,23.11,2 
SCCF RECON,ioos:station:SCCF:16:1,2010-04-06T22:00:00Z,26.4345,-81.9647,2.5,22.97,2 
SCCF RECON,ioos:station:SCCF:16:1,2010-04-06T23:00:00Z,26.4345,-81.9647,2.5,22.96,2 
SCCF RECON,ioos:station:SCCF:16:1,2010-04-07T00:00:00Z,26.4345,-81.9647,2.5,22.93,2 
SCCF RECON,ioos:station:SCCF:16:1,2010-04-07T01:00:00Z,26.4345,-81.9647,2.5,22.98,2 
SCCF RECON,ioos:station:SCCF:16:1,2010-04-07T02:00:00Z,26.4345,-81.9647,2.5,22.98,2 
SCCF RECON,ioos:station:SCCF:16:1,2010-04-07T03:00:00Z,26.4345,-81.9647,2.5,23.08,2 
SCCF RECON,ioos:station:SCCF:16:1,2010-04-07T04:00:00Z,26.4345,-81.9647,2.5,23.15,2 
SCCF RECON,ioos:station:SCCF:16:1,2010-04-07T05:00:00Z,26.4345,-81.9647,2.5,23.2,2 
SCCF RECON,ioos:station:SCCF:16:1,2010-04-07T06:00:00Z,26.4345,-81.9647,2.5,23.31,2 
SCCF RECON,ioos:station:SCCF:16:1,2010-04-07T07:00:00Z,26.4345,-81.9647,2.5,23.33,2 
SCCF RECON,ioos:station:SCCF:16:1,2010-04-07T08:00:00Z,26.4345,-81.9647,2.5,23.28,2 
SCCF RECON,ioos:station:SCCF:16:1,2010-04-07T09:00:00Z,26.4345,-81.9647,2.5,23.24,2 
SCCF RECON,ioos:station:SCCF:16:1,2010-04-07T10:00:00Z,26.4345,-81.9647,2.5,23.2,2 
SCCF RECON,ioos:station:SCCF:16:1,2010-04-07T11:00:00Z,26.4345,-81.9647,2.5,23.2,2 
SCCF RECON,ioos:station:SCCF:16:1,2010-04-07T12:00:00Z,26.4345,-81.9647,2.5,22.97,2 
SCCF RECON,ioos:station:SCCF:16:1,2010-04-07T13:00:00Z,26.4345,-81.9647,2.5,22.82,2 
SCCF RECON,ioos:station:SCCF:16:1,2010-04-07T14:00:00Z,26.4345,-81.9647,2.5,22.73,2 
SCCF RECON,ioos:station:SCCF:16:1,2010-04-07T15:00:00Z,26.4345,-81.9647,2.5,22.67,2 
SCCF RECON,ioos:station:SCCF:16:1,2010-04-07T16:00:00Z,26.4345,-81.9647,2.5,22.57,2 
SCCF RECON,ioos:station:SCCF:16:1,2010-04-07T17:00:00Z,26.4345,-81.9647,2.5,22.76,2 
SCCF RECON,ioos:station:SCCF:16:1,2010-04-07T18:00:00Z,26.4345,-81.9647,2.5,22.91,2 
SCCF RECON,ioos:station:SCCF:16:1,2010-04-07T19:00:00Z,26.4345,-81.9647,2.5,22.96,2 
SCCF RECON,ioos:station:SCCF:16:1,2010-04-07T20:00:00Z,26.4345,-81.9647,2.5,23.34,2 
SCCF RECON,ioos:station:SCCF:16:1,2010-04-07T21:00:00Z,26.4345,-81.9647,2.5,23.25,2 
SCCF RECON,ioos:station:SCCF:16:1,2010-04-07T22:00:00Z,26.4345,-81.9647,2.5,23.15,2 
SCCF RECON,ioos:station:SCCF:16:1,2010-04-07T23:00:00Z,26.4345,-81.9647,2.5,23.34,2 
SCCF RECON,ioos:station:SCCF:16:1,2010-04-08T00:00:00Z,26.4345,-81.9647,2.5,23.2,2 
SCCF RECON,ioos:station:SCCF:16:1,2010-04-08T01:00:00Z,26.4345,-81.9647,2.5,23.16,2 
SCCF RECON,ioos:station:SCCF:16:1,2010-04-08T02:00:00Z,26.4345,-81.9647,2.5,23.19,2 
SCCF RECON,ioos:station:SCCF:16:1,2010-04-08T03:00:00Z,26.4345,-81.9647,2.5,23.13,2 
SCCF RECON,ioos:station:SCCF:16:1,2010-04-08T04:00:00Z,26.4345,-81.9647,2.5,23.14,2 
SCCF RECON,ioos:station:SCCF:16:1,2010-04-08T05:00:00Z,26.4345,-81.9647,2.5,23.15,2 
SCCF RECON,ioos:station:SCCF:16:1,2010-04-08T06:00:00Z,26.4345,-81.9647,2.5,23.22,2 
SCCF RECON,ioos:station:SCCF:16:1,2010-04-08T07:00:00Z,26.4345,-81.9647,2.5,23.34,2 
SCCF RECON,ioos:station:SCCF:16:1,2010-04-08T08:00:00Z,26.4345,-81.9647,2.5,23.5,2 
SCCF RECON,ioos:station:SCCF:16:1,2010-04-08T09:00:00Z,26.4345,-81.9647,2.5,23.53,2 
SCCF RECON,ioos:station:SCCF:16:1,2010-04-08T10:00:00Z,26.4345,-81.9647,2.5,23.51,2 
SCCF RECON,ioos:station:SCCF:16:1,2010-04-08T11:00:00Z,26.4345,-81.9647,2.5,23.47,2 
SCCF RECON,ioos:station:SCCF:16:1,2010-04-08T12:00:00Z,26.4345,-81.9647,2.5,23.23,2 
SCCF RECON,ioos:station:SCCF:16:1,2010-04-08T13:00:00Z,26.4345,-81.9647,2.5,23.07,2 
SCCF RECON,ioos:station:SCCF:16:1,2010-04-08T14:00:00Z,26.4345,-81.9647,2.5,23.13,2 
SCCF RECON,ioos:station:SCCF:16:1,2010-04-08T15:00:00Z,26.4345,-81.9647,2.5,23.13,2 
SCCF RECON,ioos:station:SCCF:16:1,2010-04-08T16:00:00Z,26.4345,-81.9647,2.5,23.15,2 
SCCF RECON,ioos:station:SCCF:16:1,2010-04-08T17:00:00Z,26.4345,-81.9647,2.5,23.28,2 
SCCF RECON,ioos:station:SCCF:16:1,2010-04-08T18:00:00Z,26.4345,-81.9647,2.5,23.36,2 
SCCF RECON,ioos:station:SCCF:16:1,2010-04-08T19:00:00Z,26.4345,-81.9647,2.5,23.55,2 
SCCF RECON,ioos:station:SCCF:16:1,2010-04-08T20:00:00Z,26.4345,-81.9647,2.5,23.66,2 
SCCF RECON,ioos:station:SCCF:16:1,2010-04-08T21:00:00Z,26.4345,-81.9647,2.5,23.72,2 
SCCF RECON,ioos:station:SCCF:16:1,2010-04-08T22:00:00Z,26.4345,-81.9647,2.5,23.83,2 
SCCF RECON,ioos:station:SCCF:16:1,2010-04-08T23:00:00Z,26.4345,-81.9647,2.5,23.84,2 
SCCF RECON,ioos:station:SCCF:16:1,2010-04-09T00:00:00Z,26.4345,-81.9647,2.5,23.71,2 
SCCF RECON,ioos:station:SCCF:16:1,2010-04-09T01:00:00Z,26.4345,-81.9647,2.5,23.4,2 
SCCF RECON,ioos:station:SCCF:16:1,2010-04-09T02:00:00Z,26.4345,-81.9647,2.5,23.08,2 
SCCF RECON,ioos:station:SCCF:16:1,2010-04-09T03:00:00Z,26.4345,-81.9647,2.5,22.97,2 
SCCF RECON,ioos:station:SCCF:16:1,2010-04-09T04:00:00Z,26.4345,-81.9647,2.5,22.98,2 
SCCF RECON,ioos:station:SCCF:16:1,2010-04-09T05:00:00Z,26.4345,-81.9647,2.5,23.16,2 
SCCF RECON,ioos:station:SCCF:16:1,2010-04-09T06:00:00Z,26.4345,-81.9647,2.5,23.54,2 
SCCF RECON,ioos:station:SCCF:16:1,2010-04-09T07:00:00Z,26.4345,-81.9647,2.5,23.65,2 
SCCF RECON,ioos:station:SCCF:16:1,2010-04-09T08:00:00Z,26.4345,-81.9647,2.5,23.71,2 
SCCF RECON,ioos:station:SCCF:16:1,2010-04-09T09:00:00Z,26.4345,-81.9647,2.5,23.7,2 
SCCF RECON,ioos:station:SCCF:16:1,2010-04-09T10:00:00Z,26.4345,-81.9647,2.5,23.63,2 
SCCF RECON,ioos:station:SCCF:16:1,2010-04-09T11:00:00Z,26.4345,-81.9647,2.5,23.63,2 
SCCF RECON,ioos:station:SCCF:16:1,2010-04-09T12:00:00Z,26.4345,-81.9647,2.5,23.58,2 
SCCF RECON,ioos:station:SCCF:16:1,2010-04-09T13:00:00Z,26.4345,-81.9647,2.5,23.56,2 
SCCF RECON,ioos:station:SCCF:16:1,2010-04-09T14:00:00Z,26.4345,-81.9647,2.5,23.67,2 
SCCF RECON,ioos:station:SCCF:16:1,2010-04-09T15:00:00Z,26.4345,-81.9647,2.5,23.73,2 
SCCF RECON,ioos:station:SCCF:16:1,2010-04-09T16:00:00Z,26.4345,-81.9647,2.5,23.77,2 
SCCF RECON,ioos:station:SCCF:16:1,2010-04-09T17:00:00Z,26.4345,-81.9647,2.5,23.84,2 
SCCF RECON,ioos:station:SCCF:16:1,2010-04-09T18:00:00Z,26.4345,-81.9647,2.5,24.0,2 
SCCF RECON,ioos:station:SCCF:16:1,2010-04-09T19:00:00Z,26.4345,-81.9647,2.5,24.15,2 
SCCF RECON,ioos:station:SCCF:16:1,2010-04-09T20:00:00Z,26.4345,-81.9647,2.5,24.49,2 
SCCF RECON,ioos:station:SCCF:16:1,2010-04-09T21:00:00Z,26.4345,-81.9647,2.5,24.32,2 
SCCF RECON,ioos:station:SCCF:16:1,2010-04-09T22:00:00Z,26.4345,-81.9647,2.5,24.44,2 
SCCF RECON,ioos:station:SCCF:16:1,2010-04-09T23:00:00Z,26.4345,-81.9647,2.5,24.34,2 
SCCF RECON,ioos:station:SCCF:16:1,2010-04-10T00:00:00Z,26.4345,-81.9647,2.5,24.23,2 
SCCF RECON,ioos:station:SCCF:16:1,2010-04-10T01:00:00Z,26.4345,-81.9647,2.5,24.2,2 
SCCF RECON,ioos:station:SCCF:16:1,2010-04-10T02:00:00Z,26.4345,-81.9647,2.5,24.12,2 
SCCF RECON,ioos:station:SCCF:16:1,2010-04-10T03:00:00Z,26.4345,-81.9647,2.5,24.09,2 
SCCF RECON,ioos:station:SCCF:16:1,2010-04-10T04:00:00Z,26.4345,-81.9647,2.5,24.06,2 
SCCF RECON,ioos:station:SCCF:16:1,2010-04-10T05:00:00Z,26.4345,-81.9647,2.5,24.07,2 
SCCF RECON,ioos:station:SCCF:16:1,2010-04-10T06:00:00Z,26.4345,-81.9647,2.5,24.15,2 
SCCF RECON,ioos:station:SCCF:16:1,2010-04-10T07:00:00Z,26.4345,-81.9647,2.5,24.23,2 
SCCF RECON,ioos:station:SCCF:16:1,2010-04-10T08:00:00Z,26.4345,-81.9647,2.5,24.46,2 
SCCF RECON,ioos:station:SCCF:16:1,2010-04-10T09:00:00Z,26.4345,-81.9647,2.5,24.51,2 
SCCF RECON,ioos:station:SCCF:16:1,2010-04-10T10:00:00Z,26.4345,-81.9647,2.5,24.5,2 
SCCF RECON,ioos:station:SCCF:16:1,2010-04-10T11:00:00Z,26.4345,-81.9647,2.5,24.58,2 
SCCF RECON,ioos:station:SCCF:16:1,2010-04-10T12:00:00Z,26.4345,-81.9647,2.5,24.52,2 
SCCF RECON,ioos:station:SCCF:16:1,2010-04-10T13:00:00Z,26.4345,-81.9647,2.5,24.32,2 
SCCF RECON,ioos:station:SCCF:16:1,2010-04-10T14:00:00Z,26.4345,-81.9647,2.5,24.17,2 
SCCF RECON,ioos:station:SCCF:16:1,2010-04-10T15:00:00Z,26.4345,-81.9647,2.5,24.11,2 
SCCF RECON,ioos:station:SCCF:16:1,2010-04-10T16:00:00Z,26.4345,-81.9647,2.5,24.06,2 
SCCF RECON,ioos:station:SCCF:16:1,2010-04-10T17:00:00Z,26.4345,-81.9647,2.5,24.06,2 
SCCF RECON,ioos:station:SCCF:16:1,2010-04-10T18:00:00Z,26.4345,-81.9647,2.5,24.15,2 
SCCF RECON,ioos:station:SCCF:16:1,2010-04-10T19:00:00Z,26.4345,-81.9647,2.5,24.27,2 
SCCF RECON,ioos:station:SCCF:16:1,2010-04-10T20:00:00Z,26.4345,-81.9647,2.5,24.36,2 
SCCF RECON,ioos:station:SCCF:16:1,2010-04-10T21:00:00Z,26.4345,-81.9647,2.5,24.45,2 
SCCF RECON,ioos:station:SCCF:16:1,2010-04-10T22:00:00Z,26.4345,-81.9647,2.5,24.42,2 
SCCF RECON,ioos:station:SCCF:16:1,2010-04-10T23:00:00Z,26.4345,-81.9647,2.5,24.44,2 
SCCF RECON,ioos:station:SCCF:16:1,2010-04-11T00:00:00Z,26.4345,-81.9647,2.5,24.36,2 
SCCF RECON,ioos:station:SCCF:16:1,2010-04-11T01:00:00Z,26.4345,-81.9647,2.5,24.25,2 
SCCF RECON,ioos:station:SCCF:16:1,2010-04-11T02:00:00Z,26.4345,-81.9647,2.5,24.11,2 
SCCF RECON,ioos:station:SCCF:16:1,2010-04-11T03:00:00Z,26.4345,-81.9647,2.5,23.9,2 
SCCF RECON,ioos:station:SCCF:16:1,2010-04-11T04:00:00Z,26.4345,-81.9647,2.5,23.68,2 
SCCF RECON,ioos:station:SCCF:16:1,2010-04-11T05:00:00Z,26.4345,-81.9647,2.5,23.64,2 
SCCF RECON,ioos:station:SCCF:16:1,2010-04-11T06:00:00Z,26.4345,-81.9647,2.5,23.68,2 
SCCF RECON,ioos:station:SCCF:16:1,2010-04-11T07:00:00Z,26.4345,-81.9647,2.5,23.63,2 
SCCF RECON,ioos:station:SCCF:16:1,2010-04-11T08:00:00Z,26.4345,-81.9647,2.5,23.6,2 
SCCF RECON,ioos:station:SCCF:16:1,2010-04-11T09:00:00Z,26.4345,-81.9647,2.5,23.82,2 
SCCF RECON,ioos:station:SCCF:16:1,2010-04-11T10:00:00Z,26.4345,-81.9647,2.5,23.95,2 
SCCF RECON,ioos:station:SCCF:16:1,2010-04-11T11:00:00Z,26.4345,-81.9647,2.5,23.89,2 
SCCF RECON,ioos:station:SCCF:16:1,2010-04-11T12:00:00Z,26.4345,-81.9647,2.5,23.86,2 
SCCF RECON,ioos:station:SCCF:16:1,2010-04-11T13:00:00Z,26.4345,-81.9647,2.5,23.76,2 
SCCF RECON,ioos:station:SCCF:16:1,2010-04-11T14:00:00Z,26.4345,-81.9647,2.5,23.55,2 
SCCF RECON,ioos:station:SCCF:16:1,2010-04-11T15:00:00Z,26.4345,-81.9647,2.5,23.47,2 
SCCF RECON,ioos:station:SCCF:16:1,2010-04-11T16:00:00Z,26.4345,-81.9647,2.5,23.32,2 
SCCF RECON,ioos:station:SCCF:16:1,2010-04-11T17:00:00Z,26.4345,-81.9647,2.5,23.2,2 
SCCF RECON,ioos:station:SCCF:16:1,2010-04-11T18:00:00Z,26.4345,-81.9647,2.5,23.42,2 
SCCF RECON,ioos:station:SCCF:16:1,2010-04-11T19:00:00Z,26.4345,-81.9647,2.5,23.48,2 
SCCF RECON,ioos:station:SCCF:16:1,2010-04-11T20:00:00Z,26.4345,-81.9647,2.5,23.52,2 
SCCF RECON,ioos:station:SCCF:16:1,2010-04-11T21:00:00Z,26.4345,-81.9647,2.5,23.43,2 
SCCF RECON,ioos:station:SCCF:16:1,2010-04-11T22:00:00Z,26.4345,-81.9647,2.5,23.3,2 
SCCF RECON,ioos:station:SCCF:16:1,2010-04-11T23:00:00Z,26.4345,-81.9647,2.5,23.25,2 
SCCF RECON,ioos:station:SCCF:16:1,2010-04-12T00:00:00Z,26.4345,-81.9647,2.5,23.39,2 
SCCF RECON,ioos:station:SCCF:16:1,2010-04-12T01:00:00Z,26.4345,-81.9647,2.5,23.38,2 
SCCF RECON,ioos:station:SCCF:16:1,2010-04-12T02:00:00Z,26.4345,-81.9647,2.5,23.33,2 
SCCF RECON,ioos:station:SCCF:16:1,2010-04-12T03:00:00Z,26.4345,-81.9647,2.5,23.23,2 
SCCF RECON,ioos:station:SCCF:16:1,2010-04-12T04:00:00Z,26.4345,-81.9647,2.5,23.2,2 
SCCF RECON,ioos:station:SCCF:16:1,2010-04-12T05:00:00Z,26.4345,-81.9647,2.5,23.13,2 
SCCF RECON,ioos:station:SCCF:16:1,2010-04-12T06:00:00Z,26.4345,-81.9647,2.5,23.09,2 
SCCF RECON,ioos:station:SCCF:16:1,2010-04-12T07:00:00Z,26.4345,-81.9647,2.5,23.12,2 
SCCF RECON,ioos:station:SCCF:16:1,2010-04-12T08:00:00Z,26.4345,-81.9647,2.5,23.1,2 
SCCF RECON,ioos:station:SCCF:16:1,2010-04-12T09:00:00Z,26.4345,-81.9647,2.5,22.92,2 
SCCF RECON,ioos:station:SCCF:16:1,2010-04-12T10:00:00Z,26.4345,-81.9647,2.5,22.9,2 
SCCF RECON,ioos:station:SCCF:16:1,2010-04-12T11:00:00Z,26.4345,-81.9647,2.5,22.87,2 
SCCF RECON,ioos:station:SCCF:16:1,2010-04-12T12:00:00Z,26.4345,-81.9647,2.5,22.68,2 
SCCF RECON,ioos:station:SCCF:16:1,2010-04-12T13:00:00Z,26.4345,-81.9647,2.5,22.66,2 
SCCF RECON,ioos:station:SCCF:16:1,2010-04-12T14:00:00Z,26.4345,-81.9647,2.5,22.78,2 
SCCF RECON,ioos:station:SCCF:16:1,2010-04-12T15:00:00Z,26.4345,-81.9647,2.5,22.93,2 
SCCF RECON,ioos:station:SCCF:16:1,2010-04-12T16:00:00Z,26.4345,-81.9647,2.5,23.03,2 
SCCF RECON,ioos:station:SCCF:16:1,2010-04-12T17:00:00Z,26.4345,-81.9647,2.5,23.13,2 
SCCF RECON,ioos:station:SCCF:16:1,2010-04-12T18:00:00Z,26.4345,-81.9647,2.5,23.17,2 
SCCF RECON,ioos:station:SCCF:16:1,2010-04-12T19:00:00Z,26.4345,-81.9647,2.5,23.18,2 
SCCF RECON,ioos:station:SCCF:16:1,2010-04-12T20:00:00Z,26.4345,-81.9647,2.5,23.36,2 
SCCF RECON,ioos:station:SCCF:16:1,2010-04-12T21:00:00Z,26.4345,-81.9647,2.5,23.52,2 
SCCF RECON,ioos:station:SCCF:16:1,2010-04-12T22:00:00Z,26.4345,-81.9647,2.5,23.51,2 
SCCF RECON,ioos:station:SCCF:16:1,2010-04-12T23:00:00Z,26.4345,-81.9647,2.5,23.44,2 
SCCF RECON,ioos:station:SCCF:16:1,2010-04-13T00:00:00Z,26.4345,-81.9647,2.5,23.36,2 
SCCF RECON,ioos:station:SCCF:16:1,2010-04-13T01:00:00Z,26.4345,-81.9647,2.5,23.31,2 
SCCF RECON,ioos:station:SCCF:16:1,2010-04-13T02:00:00Z,26.4345,-81.9647,2.5,23.34,2 
SCCF RECON,ioos:station:SCCF:16:1,2010-04-13T03:00:00Z,26.4345,-81.9647,2.5,23.33,2 
SCCF RECON,ioos:station:SCCF:16:1,2010-04-13T04:00:00Z,26.4345,-81.9647,2.5,23.32,2 
SCCF RECON,ioos:station:SCCF:16:1,2010-04-13T05:00:00Z,26.4345,-81.9647,2.5,23.11,2 
SCCF RECON,ioos:station:SCCF:16:1,2010-04-13T06:00:00Z,26.4345,-81.9647,2.5,23.11,2 
SCCF RECON,ioos:station:SCCF:16:1,2010-04-13T07:00:00Z,26.4345,-81.9647,2.5,23.06,2 
SCCF RECON,ioos:station:SCCF:16:1,2010-04-13T08:00:00Z,26.4345,-81.9647,2.5,22.98,2 
SCCF RECON,ioos:station:SCCF:16:1,2010-04-13T09:00:00Z,26.4345,-81.9647,2.5,22.96,2 
SCCF RECON,ioos:station:SCCF:16:1,2010-04-13T10:00:00Z,26.4345,-81.9647,2.5,23.02,2 
SCCF RECON,ioos:station:SCCF:16:1,2010-04-13T11:00:00Z,26.4345,-81.9647,2.5,22.95,2 
SCCF RECON,ioos:station:SCCF:16:1,2010-04-13T12:00:00Z,26.4345,-81.9647,2.5,22.81,2 
SCCF RECON,ioos:station:SCCF:16:1,2010-04-13T13:00:00Z,26.4345,-81.9647,2.5,22.81,2 
SCCF RECON,ioos:station:SCCF:16:1,2010-04-13T14:00:00Z,26.4345,-81.9647,2.5,22.86,2 
SCCF RECON,ioos:station:SCCF:16:1,2010-04-13T15:00:00Z,26.4345,-81.9647,2.5,23.0,2 
SCCF RECON,ioos:station:SCCF:16:1,2010-04-13T16:00:00Z,26.4345,-81.9647,2.5,23.03,2 
SCCF RECON,ioos:station:SCCF:16:1,2010-04-13T17:00:00Z,26.4345,-81.9647,2.5,23.07,2 
SCCF RECON,ioos:station:SCCF:16:1,2010-04-13T18:00:00Z,26.4345,-81.9647,2.5,23.22,2 
SCCF RECON,ioos:station:SCCF:16:1,2010-04-13T19:00:00Z,26.4345,-81.9647,2.5,23.27,2 
SCCF RECON,ioos:station:SCCF:16:1,2010-04-13T20:00:00Z,26.4345,-81.9647,2.5,23.38,2 
SCCF RECON,ioos:station:SCCF:16:1,2010-04-13T21:00:00Z,26.4345,-81.9647,2.5,23.42,2 
SCCF RECON,ioos:station:SCCF:16:1,2010-04-13T22:00:00Z,26.4345,-81.9647,2.5,23.71,2 
SCCF RECON,ioos:station:SCCF:16:1,2010-04-13T23:00:00Z,26.4345,-81.9647,2.5,23.67,2 
SCCF RECON,ioos:station:SCCF:16:1,2010-04-14T00:00:00Z,26.4345,-81.9647,2.5,23.43,2 
SCCF RECON,ioos:station:SCCF:16:1,2010-04-14T01:00:00Z,26.4345,-81.9647,2.5,23.38,2 
SCCF RECON,ioos:station:SCCF:16:1,2010-04-14T02:00:00Z,26.4345,-81.9647,2.5,23.5,2 
SCCF RECON,ioos:station:SCCF:16:1,2010-04-14T03:00:00Z,26.4345,-81.9647,2.5,23.6,2 
SCCF RECON,ioos:station:SCCF:16:1,2010-04-14T04:00:00Z,26.4345,-81.9647,2.5,23.4,2 
SCCF RECON,ioos:station:SCCF:16:1,2010-04-14T05:00:00Z,26.4345,-81.9647,2.5,23.25,2 
SCCF RECON,ioos:station:SCCF:16:1,2010-04-14T06:00:00Z,26.4345,-81.9647,2.5,23.14,2 
SCCF RECON,ioos:station:SCCF:16:1,2010-04-14T07:00:00Z,26.4345,-81.9647,2.5,23.11,2 
SCCF RECON,ioos:station:SCCF:16:1,2010-04-14T08:00:00Z,26.4345,-81.9647,2.5,23.07,2 
SCCF RECON,ioos:station:SCCF:16:1,2010-04-14T09:00:00Z,26.4345,-81.9647,2.5,23.03,2 
SCCF RECON,ioos:station:SCCF:16:1,2010-04-14T10:00:00Z,26.4345,-81.9647,2.5,23.02,2 
SCCF RECON,ioos:station:SCCF:16:1,2010-04-14T11:00:00Z,26.4345,-81.9647,2.5,23.12,2 
SCCF RECON,ioos:station:SCCF:16:1,2010-04-14T12:00:00Z,26.4345,-81.9647,2.5,23.14,2 
SCCF RECON,ioos:station:SCCF:16:1,2010-04-14T13:00:00Z,26.4345,-81.9647,2.5,23.17,2 
SCCF RECON,ioos:station:SCCF:16:1,2010-04-14T14:00:00Z,26.4345,-81.9647,2.5,23.17,2 
SCCF RECON,ioos:station:SCCF:16:1,2010-04-14T15:00:00Z,26.4345,-81.9647,2.5,23.11,2 
SCCF RECON,ioos:station:SCCF:16:1,2010-04-14T16:00:00Z,26.4345,-81.9647,2.5,23.14,2 
SCCF RECON,ioos:station:SCCF:16:1,2010-04-14T17:00:00Z,26.4345,-81.9647,2.5,23.18,2 
SCCF RECON,ioos:station:SCCF:16:1,2010-04-14T18:00:00Z,26.4345,-81.9647,2.5,23.24,2 
SCCF RECON,ioos:station:SCCF:16:1,2010-04-14T19:00:00Z,26.4345,-81.9647,2.5,23.29,2 
SCCF RECON,ioos:station:SCCF:16:1,2010-04-14T20:00:00Z,26.4345,-81.9647,2.5,23.42,2 
SCCF RECON,ioos:station:SCCF:16:1,2010-04-14T21:00:00Z,26.4345,-81.9647,2.5,23.48,2 
SCCF RECON,ioos:station:SCCF:16:1,2010-04-14T22:00:00Z,26.4345,-81.9647,2.5,23.48,2 
SCCF RECON,ioos:station:SCCF:16:1,2010-04-14T23:00:00Z,26.4345,-81.9647,2.5,23.75,2 
SCCF RECON,ioos:station:SCCF:16:1,2010-04-15T00:00:00Z,26.4345,-81.9647,2.5,23.59,2 
SCCF RECON,ioos:station:SCCF:16:1,2010-04-15T01:00:00Z,26.4345,-81.9647,2.5,23.39,2 
SCCF RECON,ioos:station:SCCF:16:1,2010-04-15T02:00:00Z,26.4345,-81.9647,2.5,23.31,2 
SCCF RECON,ioos:station:SCCF:16:1,2010-04-15T03:00:00Z,26.4345,-81.9647,2.5,23.5,2 
SCCF RECON,ioos:station:SCCF:16:1,2010-04-15T04:00:00Z,26.4345,-81.9647,2.5,23.4,2 
SCCF RECON,ioos:station:SCCF:16:1,2010-04-15T05:00:00Z,26.4345,-81.9647,2.5,23.13,2 
SCCF RECON,ioos:station:SCCF:16:1,2010-04-15T06:00:00Z,26.4345,-81.9647,2.5,23.01,2 
SCCF RECON,ioos:station:SCCF:16:1,2010-04-15T07:00:00Z,26.4345,-81.9647,2.5,22.84,2 
SCCF RECON,ioos:station:SCCF:16:1,2010-04-15T08:00:00Z,26.4345,-81.9647,2.5,22.75,2 
SCCF RECON,ioos:station:SCCF:16:1,2010-04-15T09:00:00Z,26.4345,-81.9647,2.5,22.7,2 
SCCF RECON,ioos:station:SCCF:16:1,2010-04-15T10:00:00Z,26.4345,-81.9647,2.5,22.66,2 
SCCF RECON,ioos:station:SCCF:16:1,2010-04-15T11:00:00Z,26.4345,-81.9647,2.5,22.69,2 
SCCF RECON,ioos:station:SCCF:16:1,2010-04-15T12:00:00Z,26.4345,-81.9647,2.5,22.78,2 
SCCF RECON,ioos:station:SCCF:16:1,2010-04-15T13:00:00Z,26.4345,-81.9647,2.5,22.71,2 
SCCF RECON,ioos:station:SCCF:16:1,2010-04-15T14:00:00Z,26.4345,-81.9647,2.5,22.62,2 
SCCF RECON,ioos:station:SCCF:16:1,2010-04-15T15:00:00Z,26.4345,-81.9647,2.5,22.68,2 
SCCF RECON,ioos:station:SCCF:16:1,2010-04-15T16:00:00Z,26.4345,-81.9647,2.5,22.66,2 
SCCF RECON,ioos:station:SCCF:16:1,2010-04-15T17:00:00Z,26.4345,-81.9647,2.5,22.68,2 
SCCF RECON,ioos:station:SCCF:16:1,2010-04-15T18:00:00Z,26.4345,-81.9647,2.5,22.75,2 
SCCF RECON,ioos:station:SCCF:16:1,2010-04-15T19:00:00Z,26.4345,-81.9647,2.5,22.81,2 
SCCF RECON,ioos:station:SCCF:16:1,2010-04-15T20:00:00Z,26.4345,-81.9647,2.5,22.91,2 
SCCF RECON,ioos:station:SCCF:16:1,2010-04-15T21:00:00Z,26.4345,-81.9647,2.5,23.0,2 
SCCF RECON,ioos:station:SCCF:16:1,2010-04-15T22:00:00Z,26.4345,-81.9647,2.5,23.07,2 
SCCF RECON,ioos:station:SCCF:16:1,2010-04-15T23:00:00Z,26.4345,-81.9647,2.5,23.07,2 
SCCF RECON,ioos:station:SCCF:16:1,2010-04-16T00:00:00Z,26.4345,-81.9647,2.5,23.3,2 
SCCF RECON,ioos:station:SCCF:16:1,2010-04-16T01:00:00Z,26.4345,-81.9647,2.5,23.42,2 
SCCF RECON,ioos:station:SCCF:16:1,2010-04-16T02:00:00Z,26.4345,-81.9647,2.5,23.26,2 
SCCF RECON,ioos:station:SCCF:16:1,2010-04-16T03:00:00Z,26.4345,-81.9647,2.5,23.24,2 
SCCF RECON,ioos:station:SCCF:16:1,2010-04-16T04:00:00Z,26.4345,-81.9647,2.5,23.2,2 
SCCF RECON,ioos:station:SCCF:16:1,2010-04-16T05:00:00Z,26.4345,-81.9647,2.5,22.88,2 
SCCF RECON,ioos:station:SCCF:16:1,2010-04-16T06:00:00Z,26.4345,-81.9647,2.5,22.79,2 
SCCF RECON,ioos:station:SCCF:16:1,2010-04-16T07:00:00Z,26.4345,-81.9647,2.5,22.82,2 
SCCF RECON,ioos:station:SCCF:16:1,2010-04-16T08:00:00Z,26.4345,-81.9647,2.5,22.79,2 
SCCF RECON,ioos:station:SCCF:16:1,2010-04-16T09:00:00Z,26.4345,-81.9647,2.5,22.68,2 
SCCF RECON,ioos:station:SCCF:16:1,2010-04-16T10:00:00Z,26.4345,-81.9647,2.5,22.64,2 
SCCF RECON,ioos:station:SCCF:16:1,2010-04-16T11:00:00Z,26.4345,-81.9647,2.5,22.61,2 
SCCF RECON,ioos:station:SCCF:16:1,2010-04-16T12:00:00Z,26.4345,-81.9647,2.5,22.66,2 
SCCF RECON,ioos:station:SCCF:16:1,2010-04-16T13:00:00Z,26.4345,-81.9647,2.5,22.64,2 
SCCF RECON,ioos:station:SCCF:16:1,2010-04-16T14:00:00Z,26.4345,-81.9647,2.5,22.67,2 
SCCF RECON,ioos:station:SCCF:16:1,2010-04-16T15:00:00Z,26.4345,-81.9647,2.5,22.76,2 
SCCF RECON,ioos:station:SCCF:16:1,2010-04-16T16:00:00Z,26.4345,-81.9647,2.5,22.72,2 
SCCF RECON,ioos:station:SCCF:16:1,2010-04-16T17:00:00Z,26.4345,-81.9647,2.5,22.71,2 
SCCF RECON,ioos:station:SCCF:16:1,2010-04-16T18:00:00Z,26.4345,-81.9647,2.5,22.86,2 
SCCF RECON,ioos:station:SCCF:16:1,2010-04-16T19:00:00Z,26.4345,-81.9647,2.5,22.98,2 
SCCF RECON,ioos:station:SCCF:16:1,2010-04-16T20:00:00Z,26.4345,-81.9647,2.5,23.05,2 
SCCF RECON,ioos:station:SCCF:16:1,2010-04-16T21:00:00Z,26.4345,-81.9647,2.5,23.13,2 
SCCF RECON,ioos:station:SCCF:16:1,2010-04-16T22:00:00Z,26.4345,-81.9647,2.5,23.21,2 
SCCF RECON,ioos:station:SCCF:16:1,2010-04-16T23:00:00Z,26.4345,-81.9647,2.5,23.39,2 
SCCF RECON,ioos:station:SCCF:16:1,2010-04-17T00:00:00Z,26.4345,-81.9647,2.5,23.46,2 
SCCF RECON,ioos:station:SCCF:16:1,2010-04-17T01:00:00Z,26.4345,-81.9647,2.5,23.3,2 
SCCF RECON,ioos:station:SCCF:16:1,2010-04-17T02:00:00Z,26.4345,-81.9647,2.5,23.33,2 
SCCF RECON,ioos:station:SCCF:16:1,2010-04-17T03:00:00Z,26.4345,-81.9647,2.5,23.34,2 
SCCF RECON,ioos:station:SCCF:16:1,2010-04-17T04:00:00Z,26.4345,-81.9647,2.5,23.2,2 
SCCF RECON,ioos:station:SCCF:16:1,2010-04-17T05:00:00Z,26.4345,-81.9647,2.5,23.07,2 
SCCF RECON,ioos:station:SCCF:16:1,2010-04-17T06:00:00Z,26.4345,-81.9647,2.5,23.13,2 
SCCF RECON,ioos:station:SCCF:16:1,2010-04-17T07:00:00Z,26.4345,-81.9647,2.5,23.07,2 
SCCF RECON,ioos:station:SCCF:16:1,2010-04-17T08:00:00Z,26.4345,-81.9647,2.5,22.99,2 
SCCF RECON,ioos:station:SCCF:16:1,2010-04-17T09:00:00Z,26.4345,-81.9647,2.5,22.89,2 
SCCF RECON,ioos:station:SCCF:16:1,2010-04-17T10:00:00Z,26.4345,-81.9647,2.5,22.81,2 
SCCF RECON,ioos:station:SCCF:16:1,2010-04-17T11:00:00Z,26.4345,-81.9647,2.5,22.81,2 
SCCF RECON,ioos:station:SCCF:16:1,2010-04-17T12:00:00Z,26.4345,-81.9647,2.5,22.79,2 
SCCF RECON,ioos:station:SCCF:16:1,2010-04-17T13:00:00Z,26.4345,-81.9647,2.5,22.8,2 
SCCF RECON,ioos:station:SCCF:16:1,2010-04-17T14:00:00Z,26.4345,-81.9647,2.5,22.79,2 
SCCF RECON,ioos:station:SCCF:16:1,2010-04-17T15:00:00Z,26.4345,-81.9647,2.5,22.7,2 
SCCF RECON,ioos:station:SCCF:16:1,2010-04-17T16:00:00Z,26.4345,-81.9647,2.5,22.73,2 
SCCF RECON,ioos:station:SCCF:16:1,2010-04-17T17:00:00Z,26.4345,-81.9647,2.5,22.73,2 
SCCF RECON,ioos:station:SCCF:16:1,2010-04-17T18:00:00Z,26.4345,-81.9647,2.5,22.74,2 
SCCF RECON,ioos:station:SCCF:16:1,2010-04-17T19:00:00Z,26.4345,-81.9647,2.5,22.76,2 
SCCF RECON,ioos:station:SCCF:16:1,2010-04-17T20:00:00Z,26.4345,-81.9647,2.5,22.75,2 
SCCF RECON,ioos:station:SCCF:16:1,2010-04-17T21:00:00Z,26.4345,-81.9647,2.5,22.78,2 
SCCF RECON,ioos:station:SCCF:16:1,2010-04-17T22:00:00Z,26.4345,-81.9647,2.5,22.93,2 
SCCF RECON,ioos:station:SCCF:16:1,2010-04-17T23:00:00Z,26.4345,-81.9647,2.5,22.97,2 
SCCF RECON,ioos:station:SCCF:16:1,2010-04-18T00:00:00Z,26.4345,-81.9647,2.5,23.22,2 
SCCF RECON,ioos:station:SCCF:16:1,2010-04-18T01:00:00Z,26.4345,-81.9647,2.5,23.33,2 
SCCF RECON,ioos:station:SCCF:16:1,2010-04-18T02:00:00Z,26.4345,-81.9647,2.5,23.34,2 
SCCF RECON,ioos:station:SCCF:16:1,2010-04-18T03:00:00Z,26.4345,-81.9647,2.5,23.3,2 
SCCF RECON,ioos:station:SCCF:16:1,2010-04-18T04:00:00Z,26.4345,-81.9647,2.5,23.19,2 
SCCF RECON,ioos:station:SCCF:16:1,2010-04-18T05:00:00Z,26.4345,-81.9647,2.5,22.96,2 
SCCF RECON,ioos:station:SCCF:16:1,2010-04-18T06:00:00Z,26.4345,-81.9647,2.5,22.95,2 
SCCF RECON,ioos:station:SCCF:16:1,2010-04-18T07:00:00Z,26.4345,-81.9647,2.5,22.84,2 
SCCF RECON,ioos:station:SCCF:16:1,2010-04-18T08:00:00Z,26.4345,-81.9647,2.5,22.76,2 
SCCF RECON,ioos:station:SCCF:16:1,2010-04-18T09:00:00Z,26.4345,-81.9647,2.5,22.78,2 